Theta_e
319 320 321 321 321 323 324 324 323 323 322 318 318 320 319 319 319 319 319 319 319 319 318 318 318 318 319 319 319 319 319 318 318 317 317 320 318 316 318 318 319 319 318 322 324 325 325 325 325 325 327 329 330 332 333 335 336 336 336 336 336 335 335 336 336 335 335 334 332 331 330 328 325 323 321 319 319 319 319 318 318 315 313 310 310 310 309 310 309 314 323 327 331 334 336 339 340
318 319 320 321 321 325 327 324 322 320 319 316 317 319 319 319 320 320 319 319 320 318 317 317 317 318 318 317 317 318 319 319 319 319 318 317 315 316 316 316 318 319 320 322 323 323 324 324 324 324 324 326 328 330 331 333 334 335 335 336 336 334 335 335 335 334 335 335 333 331 331 330 327 324 320 318 319 320 321 320 318 313 312 311 309 310 309 311 311 318 328 329 331 334 336 338 338
317 318 319 321 322 324 327 324 320 318 316 315 316 319 319 319 320 319 319 318 318 316 316 316 317 318 318 317 317 318 319 319 318 318 317 315 315 315 315 314 316 319 321 322 323 323 323 323 322 323 322 323 325 327 328 330 332 334 335 336 335 334 334 333 333 334 335 335 334 332 331 330 328 324 320 320 322 324 325 325 322 316 312 310 310 310 309 311 313 322 330 330 332 335 336 338 337
316 318 319 321 324 323 325 323 320 318 316 315 316 319 319 319 319 318 319 317 316 316 315 316 317 318 317 318 318 317 318 318 317 316 316 315 315 314 314 314 315 317 320 321 322 322 321 321 322 322 322 322 323 325 327 328 330 333 335 335 334 334 334 333 333 334 335 335 334 332 330 329 327 325 324 323 324 324 324 323 324 323 319 313 310 309 310 311 315 325 331 330 333 335 337 337 336
316 319 319 321 325 323 323 322 321 318 316 316 316 319 319 318 318 318 318 317 316 316 316 316 318 317 316 317 316 317 318 318 316 315 315 315 314 314 314 314 314 315 318 320 320 320 319 319 321 322 322 322 323 325 327 327 330 332 334 334 333 332 333 334 334 335 335 334 333 331 329 328 328 328 328 328 328 328 326 323 322 325 325 321 315 309 310 311 316 327 332 331 333 335 337 338 336
316 319 319 320 322 321 321 319 318 317 316 317 317 318 318 318 317 317 317 317 316 316 316 316 317 316 316 316 315 316 317 316 315 315 314 314 314 313 313 313 314 314 315 318 318 318 318 319 321 322 323 323 324 326 328 328 330 332 333 333 333 332 332 333 333 334 334 333 331 329 329 330 331 331 331 331 331 330 328 325 323 324 326 327 324 316 311 310 317 330 335 334 335 337 338 338 336
316 320 320 319 319 319 321 317 317 317 318 318 318 318 317 318 317 316 317 317 316 315 315 315 315 315 316 316 315 316 315 315 314 314 314 313 313 313 313 313 314 314 314 315 317 318 319 320 320 321 323 325 325 326 329 330 330 331 332 332 332 332 332 332 332 332 332 331 329 328 330 331 332 332 332 333 333 331 329 326 325 325 325 327 329 326 317 310 318 331 335 335 337 338 339 338 337
316 319 320 320 320 320 320 318 318 318 317 317 317 317 316 318 316 315 317 317 316 315 314 314 314 314 316 315 315 316 315 314 314 314 313 313 312 312 312 312 313 314 314 314 316 318 319 319 319 320 322 324 325 326 329 331 331 330 331 331 332 333 332 332 331 331 331 329 328 328 329 331 332 332 333 333 332 330 329 328 327 328 329 328 328 331 323 311 319 331 335 337 338 338 339 337 335
315 318 319 320 321 319 319 318 318 318 317 316 316 317 316 316 315 315 316 317 316 315 314 313 312 314 315 314 314 315 315 314 314 314 313 313 312 312 312 311 312 312 313 314 315 317 318 318 318 318 320 322 324 326 328 330 332 331 330 330 332 332 331 333 331 331 331 328 327 328 329 330 331 332 332 332 331 330 329 328 328 330 331 331 330 333 327 314 320 331 334 336 338 338 338 337 334
316 318 319 321 319 318 318 317 318 317 317 316 316 316 316 315 314 315 315 316 316 315 314 312 311 313 315 314 314 316 315 315 314 314 313 313 313 312 312 312 311 311 312 313 314 316 317 317 317 317 318 320 321 322 324 328 331 332 330 330 332 332 332 333 332 331 330 327 328 329 329 330 330 330 330 331 331 329 329 329 329 331 331 332 333 334 328 315 322 332 334 336 338 338 338 336 334
318 318 318 320 318 316 316 317 319 318 317 317 316 316 315 313 313 315 315 315 315 315 314 312 312 313 313 314 315 316 315 314 314 314 313 313 313 313 313 312 312 311 312 313 314 315 316 316 316 317 317 317 317 317 319 323 328 331 331 330 331 331 332 333 332 331 329 327 327 328 329 330 331 330 328 329 330 330 329 329 330 331 331 332 333 334 327 314 322 333 335 336 337 338 338 336 334
320 320 318 320 318 316 317 317 318 319 319 317 317 315 313 312 313 315 315 315 314 315 314 312 313 313 313 315 316 316 315 314 314 314 314 314 314 314 313 312 312 311 311 312 313 315 315 315 315 316 315 315 314 315 316 318 321 327 331 330 331 331 332 333 331 330 329 326 326 326 328 329 330 330 328 328 329 330 330 330 330 331 330 332 333 334 327 315 322 334 335 336 337 338 337 335 335
319 320 319 320 318 318 318 318 318 319 319 317 316 313 311 313 314 315 314 314 314 314 314 313 312 312 313 315 316 316 315 314 314 314 314 314 313 313 313 313 313 312 312 311 312 313 314 315 315 315 315 315 314 314 316 317 317 323 330 330 330 331 332 332 330 330 329 325 325 325 327 328 328 329 329 329 329 330 330 329 329 330 330 331 333 334 328 316 321 332 334 335 337 338 337 335 335
318 319 320 319 317 318 318 318 319 318 318 317 315 313 312 313 314 313 313 314 314 314 313 312 311 311 313 314 315 317 316 314 314 314 313 313 313 313 313 313 313 312 312 312 311 312 313 314 314 315 315 315 314 314 314 315 315 319 327 330 328 330 331 331 330 330 329 326 326 326 327 327 328 329 329 329 330 330 329 329 328 329 329 330 333 334 328 320 321 328 334 337 337 338 337 336 334
317 318 319 320 318 318 318 318 318 317 317 316 314 312 311 313 313 312 312 313 314 313 312 312 311 312 314 314 316 316 315 314 313 314 313 314 314 314 314 314 313 313 312 312 312 311 312 313 314 314 314 315 314 314 314 313 313 315 324 329 328 329 331 331 331 331 329 327 326 327 327 327 327 329 329 329 329 330 329 329 329 328 328 330 333 333 328 324 325 328 333 337 337 338 337 335 335
316 317 319 319 318 318 318 318 317 317 317 316 313 311 312 313 312 312 312 312 312 312 312 312 311 312 313 313 314 314 313 313 312 313 313 313 314 314 314 314 313 313 313 312 312 311 311 312 313 313 314 314 314 313 313 313 313 314 320 327 328 328 330 330 331 331 329 327 326 326 327 327 328 329 329 329 328 329 329 329 328 328 329 330 332 332 328 324 326 329 332 335 336 337 336 334 334
316 318 319 318 318 318 317 318 317 316 316 316 314 311 313 314 312 312 312 311 311 312 311 312 312 312 313 313 313 313 312 312 312 313 313 313 313 312 312 312 312 312 312 312 312 312 312 311 312 313 313 314 314 312 312 312 313 314 318 325 327 328 329 330 330 331 329 327 325 326 327 327 329 329 328 328 328 328 328 328 327 328 329 330 331 332 330 326 325 329 332 335 336 335 334 332 331
317 319 318 317 318 318 317 317 316 316 316 316 316 313 312 313 313 311 311 313 312 312 313 313 313 313 313 313 313 312 312 312 312 312 312 311 311 311 312 312 312 312 311 311 312 312 312 312 312 312 313 314 314 312 311 312 312 315 318 323 327 327 329 329 329 330 329 327 325 325 326 327 329 328 327 326 327 327 327 327 327 327 327 329 330 332 333 330 328 330 333 334 334 333 331 330 329
318 319 318 318 318 316 316 316 315 315 315 316 316 313 311 312 312 311 311 314 314 313 315 315 314 314 314 313 312 312 312 312 312 311 310 309 310 311 311 311 312 312 312 311 311 311 312 312 312 312 312 313 314 312 311 312 312 314 316 321 325 327 327 328 329 330 329 327 325 325 325 327 329 328 326 325 326 326 326 326 327 327 326 328 330 331 333 332 329 331 334 333 331 330 329 329 327
317 317 319 318 317 316 314 314 315 314 314 314 315 313 312 311 310 310 311 313 314 315 315 315 314 313 314 314 313 313 313 312 311 310 309 309 309 310 310 310 310 310 311 310 310 310 311 311 312 312 313 313 314 314 312 312 312 313 316 319 323 327 327 327 328 330 330 328 326 325 325 327 329 327 326 325 323 323 323 326 327 326 326 328 330 331 333 334 332 332 334 333 329 328 328 328 326
316 316 318 317 314 315 314 313 314 313 312 313 313 313 312 312 309 310 311 313 315 315 314 313 312 312 313 314 314 313 313 312 311 310 309 308 308 309 309 309 309 309 310 310 310 310 310 310 311 312 312 313 314 314 314 312 312 313 316 319 321 325 327 327 328 330 329 328 326 325 324 327 328 327 326 323 321 320 321 325 328 326 326 329 330 332 334 334 333 331 331 330 328 327 327 326 325
315 316 317 315 313 314 314 313 312 312 311 311 312 312 311 311 310 311 311 312 314 314 313 312 312 312 312 313 313 312 312 311 310 309 308 307 307 307 308 308 308 309 309 310 310 310 310 310 310 310 311 312 313 313 313 313 312 312 314 319 321 324 326 327 328 330 329 328 327 325 324 326 328 327 327 323 320 320 320 323 328 326 327 329 329 332 332 330 330 329 328 328 327 326 325 325 325
315 316 315 314 313 313 313 311 311 311 310 311 312 311 310 311 312 311 310 312 313 313 312 312 312 312 312 312 310 310 310 309 308 306 306 305 305 305 306 307 307 308 308 309 309 310 310 310 309 310 311 312 312 313 313 313 313 312 312 317 322 323 324 327 329 329 329 329 327 325 324 325 328 327 327 325 321 322 321 320 325 326 327 329 329 331 330 326 326 326 327 327 327 326 323 323 324
314 316 314 312 312 312 312 311 310 309 309 311 311 310 310 312 312 310 310 312 312 311 312 312 312 311 311 310 309 309 308 306 305 304 304 304 304 304 304 305 306 307 307 308 308 309 309 310 309 309 310 311 312 312 313 314 313 313 311 313 320 324 324 325 328 330 330 329 328 325 324 324 327 327 326 326 324 324 321 318 323 326 327 328 329 330 328 326 325 325 326 324 325 326 319 317 320
313 315 314 312 311 311 311 309 309 309 309 310 309 310 312 311 310 310 312 312 311 311 312 311 311 310 310 309 308 307 305 304 304 303 303 303 303 303 304 305 306 306 307 307 307 308 308 308 309 309 309 310 311 312 314 314 314 313 313 311 314 320 324 325 327 330 330 329 328 326 325 324 325 326 326 326 325 323 318 317 323 326 327 328 329 329 328 327 326 327 327 322 323 326 320 316 318
313 313 313 312 312 311 310 309 309 308 308 310 310 312 313 309 309 311 311 311 311 312 311 310 310 309 308 307 306 304 303 303 303 302 302 302 302 303 303 304 306 306 306 307 307 307 307 307 308 308 308 308 309 313 315 315 315 314 314 313 313 318 323 325 326 329 331 329 328 327 326 324 325 325 325 326 325 320 316 316 320 324 326 327 328 328 328 327 327 328 325 321 322 324 323 321 319
311 311 311 311 312 311 310 310 310 309 308 310 311 312 312 309 310 312 311 311 312 312 310 309 309 307 306 305 303 303 303 302 302 301 301 301 301 301 302 302 304 305 306 307 307 306 307 307 307 307 308 307 309 315 317 317 319 318 316 315 318 321 322 323 326 329 330 330 328 328 326 324 324 325 326 326 324 320 318 315 316 322 325 327 327 327 328 326 327 328 324 322 320 319 323 324 322
309 309 310 311 312 311 310 311 310 310 309 309 310 311 311 309 310 313 311 311 312 312 310 308 307 305 304 303 303 302 302 301 301 300 299 300 299 299 299 300 301 302 303 304 305 306 306 307 307 307 308 307 308 314 318 319 320 320 319 316 318 322 322 323 327 328 329 329 328 327 327 324 324 325 325 326 324 321 319 315 313 320 325 326 326 326 327 326 326 326 325 324 321 320 321 321 322
308 308 310 312 313 312 310 311 311 311 310 308 308 310 311 311 312 312 311 311 312 311 309 306 305 304 303 303 302 302 301 301 300 299 299 299 298 298 298 299 299 299 300 300 302 303 304 305 307 306 307 307 308 311 316 319 319 320 321 319 317 320 322 324 327 328 328 328 328 328 328 325 323 325 325 326 324 320 320 315 313 321 326 326 326 326 326 326 325 324 325 324 323 324 321 318 322
309 308 310 313 313 313 312 311 311 311 309 308 309 311 312 313 312 312 311 311 311 310 308 305 304 303 303 302 302 302 301 300 300 299 298 298 298 298 298 298 298 298 299 299 300 300 301 302 305 306 306 306 308 309 313 317 318 319 321 320 318 319 320 322 325 328 329 329 328 328 329 325 323 324 324 325 323 319 318 313 312 321 325 326 326 324 324 325 323 321 322 322 323 324 321 318 320
311 310 311 314 313 313 314 311 311 311 309 309 311 312 312 313 313 312 311 311 311 309 306 304 303 302 302 301 301 301 301 300 300 299 298 298 298 298 298 298 298 298 298 299 299 299 300 301 302 304 305 305 306 308 311 314 316 318 320 320 319 319 320 322 323 326 328 329 328 328 328 326 323 322 323 324 322 318 317 311 311 321 324 324 324 321 322 323 320 318 317 319 322 323 322 317 316
311 311 313 315 313 313 314 311 310 310 309 310 311 312 312 312 312 312 311 311 309 307 304 303 302 301 301 301 301 300 300 299 299 298 297 297 297 297 297 297 297 297 297 298 298 299 299 300 301 302 303 304 304 305 308 311 314 317 319 319 319 319 320 321 322 324 326 327 328 327 327 325 323 322 321 322 321 319 317 311 311 320 322 322 321 319 320 319 317 317 316 317 318 321 323 321 318
313 313 313 315 313 313 313 310 309 310 310 310 311 311 312 312 312 312 311 310 307 305 303 302 301 301 301 300 300 300 299 299 298 298 297 297 297 297 296 296 296 296 296 297 297 298 298 299 300 300 301 303 303 304 304 307 312 315 319 320 320 320 320 320 321 323 324 326 327 326 325 324 323 322 321 321 320 319 319 313 311 320 323 321 321 319 317 317 317 317 318 319 316 317 322 322 322
314 313 313 314 312 312 312 311 309 309 309 310 310 311 311 311 311 312 310 308 305 304 302 301 301 300 300 300 299 299 299 298 298 298 297 297 297 296 296 296 296 296 296 296 296 297 298 298 299 299 300 301 302 303 304 304 307 311 316 319 320 320 320 320 322 322 321 323 327 326 325 324 323 322 321 321 320 318 320 317 312 317 323 322 322 320 318 318 318 317 319 321 318 318 321 322 322
313 313 313 313 312 311 312 312 310 309 308 309 310 311 311 310 311 311 309 306 304 303 302 301 300 300 300 299 299 299 298 298 298 298 297 297 297 296 296 296 295 296 295 295 296 296 297 297 298 299 300 300 301 302 304 305 304 306 311 316 318 319 320 320 322 324 322 321 324 325 325 323 323 323 321 321 320 318 320 320 315 313 318 322 323 321 319 319 317 317 321 322 319 320 322 321 321
311 311 311 311 312 312 311 311 310 308 307 309 310 310 310 310 309 309 307 305 304 302 301 301 300 300 299 299 299 298 298 298 298 298 297 296 297 296 296 296 295 295 295 295 295 295 296 296 297 298 299 300 300 301 303 306 306 305 307 311 314 316 319 320 321 322 322 321 321 323 325 324 323 323 322 322 321 320 320 322 319 314 314 319 323 321 319 318 315 315 321 321 319 320 321 320 319
309 310 311 312 312 312 311 310 309 307 307 308 309 309 309 309 308 308 306 305 303 302 301 300 300 299 299 299 298 298 298 298 298 297 297 296 296 296 296 296 296 295 295 295 295 295 295 295 296 297 298 300 301 301 303 305 306 307 307 309 312 313 316 319 320 322 323 322 319 319 322 325 324 323 323 322 322 322 321 322 321 318 315 317 322 322 318 316 313 312 318 321 320 319 318 317 317
309 310 311 312 312 312 310 309 309 307 306 307 308 308 308 308 307 307 306 304 302 301 300 299 299 299 299 299 298 298 298 298 297 297 297 296 295 295 296 296 296 296 296 295 295 295 295 295 295 296 297 298 300 301 302 304 305 306 307 308 310 312 313 315 318 320 321 323 322 320 320 323 324 323 323 323 323 323 322 322 322 320 318 318 322 321 317 315 311 310 316 320 321 316 312 312 312
310 311 311 312 312 311 310 309 308 306 306 306 307 307 308 307 307 306 305 303 301 300 300 299 299 298 298 298 298 298 298 297 297 297 296 296 295 295 295 295 296 296 296 296 295 295 295 295 295 295 295 296 297 299 300 302 303 305 307 307 307 310 312 313 314 317 318 320 321 322 322 322 322 322 322 322 322 323 322 322 322 320 319 319 322 321 317 317 313 311 315 317 319 316 311 309 310
311 311 311 311 311 310 310 309 307 306 306 306 307 307 306 307 307 305 304 303 302 301 300 299 299 298 298 298 298 298 297 297 297 296 296 296 296 295 295 295 296 295 296 296 295 295 295 295 295 295 295 295 296 297 298 299 301 304 306 306 305 306 309 310 312 315 317 319 318 319 320 320 320 321 321 320 321 323 322 321 321 320 319 320 323 321 317 317 315 313 315 317 318 318 315 312 313
312 310 310 310 309 308 308 307 306 306 306 306 305 305 305 306 307 305 304 303 302 301 300 299 298 298 298 298 298 297 297 297 296 296 296 296 296 295 295 295 295 295 296 296 295 295 295 295 295 295 295 295 294 295 297 298 299 301 303 305 304 304 306 308 311 312 315 319 321 320 319 319 320 320 321 320 320 321 322 322 321 319 319 320 322 322 317 316 316 314 315 318 320 319 315 311 314
311 309 307 308 307 307 306 306 306 306 306 306 304 303 304 305 307 306 304 302 301 300 299 299 298 298 298 297 297 297 297 297 296 296 296 296 296 295 295 294 294 295 295 295 295 295 295 295 294 295 295 295 294 294 296 297 297 298 300 302 304 305 306 308 311 312 312 315 319 321 320 320 320 320 321 321 320 320 321 322 321 319 318 319 321 321 318 315 314 314 314 318 321 319 312 309 314
310 308 305 306 306 306 306 306 305 305 306 307 305 302 303 305 307 306 303 300 299 299 299 298 298 297 297 297 297 297 296 296 296 296 295 295 295 295 295 294 294 294 294 294 294 294 295 295 295 295 294 295 295 294 295 296 296 296 297 299 302 305 307 306 307 310 312 312 315 318 319 319 319 320 321 322 321 320 320 320 320 320 318 318 320 320 319 316 314 314 314 316 320 318 311 309 312
309 307 305 306 306 305 305 306 305 305 305 306 305 304 303 305 307 305 302 300 299 298 297 298 298 297 297 297 296 296 296 295 295 295 294 294 294 295 295 294 294 294 293 293 293 293 294 294 294 295 295 294 294 294 294 295 295 295 296 297 299 303 306 306 306 309 311 312 313 316 318 318 317 319 321 322 322 320 320 320 319 320 319 317 319 320 319 317 315 315 315 316 319 317 311 309 312
308 305 304 305 304 304 306 305 304 305 304 303 305 305 305 306 307 304 302 300 298 297 296 297 297 297 296 296 296 295 295 294 294 294 294 294 294 294 294 294 294 294 293 293 292 293 293 293 293 293 294 294 294 294 294 295 295 295 295 295 297 299 303 306 307 309 311 311 312 314 317 318 318 318 319 320 321 321 320 319 318 318 319 317 318 318 318 318 317 316 316 316 317 316 313 312 314
304 303 303 305 305 305 306 305 304 304 303 303 304 305 304 304 304 302 301 299 297 296 296 297 297 297 296 296 295 295 294 294 294 294 294 294 294 294 293 294 294 294 294 293 292 292 292 293 293 293 293 294 294 294 294 294 295 295 295 295 295 296 300 304 307 309 310 312 312 312 315 318 318 319 320 319 320 321 320 319 318 318 318 318 317 316 317 318 318 318 318 317 315 314 314 314 316
301 303 304 304 304 303 303 303 303 302 303 304 303 302 300 299 301 301 300 298 296 296 296 296 297 296 296 295 294 294 294 294 294 293 293 293 293 293 293 293 293 293 293 293 293 292 292 292 292 292 293 293 293 294 294 294 294 295 295 295 295 295 296 300 304 307 309 311 311 311 312 316 318 318 319 319 319 320 320 319 318 318 318 318 317 316 316 315 316 318 318 317 315 313 314 314 314
302 303 303 302 302 302 301 301 301 301 303 304 301 299 297 297 300 299 297 296 296 296 296 296 296 296 295 294 294 294 294 294 293 293 293 293 293 293 293 293 293 293 293 293 293 293 293 293 292 293 293 292 293 293 294 294 294 295 295 295 295 295 295 296 299 303 307 308 310 311 311 313 318 319 318 318 319 319 319 318 317 317 317 318 318 317 316 314 314 318 317 316 314 314 315 315 312
303 303 302 301 301 300 300 301 300 301 303 302 299 298 297 297 299 299 297 296 296 296 296 296 296 295 294 294 294 294 293 293 293 293 293 292 293 293 292 293 293 293 293 293 293 293 293 293 293 293 293 293 293 293 293 294 294 294 295 295 295 295 295 295 296 299 303 306 307 309 310 311 315 319 318 318 319 319 318 318 317 317 317 318 318 317 317 315 314 316 317 316 315 314 315 315 312
302 302 301 299 298 298 299 300 299 300 301 299 297 297 297 298 301 300 297 296 296 296 296 296 295 295 294 294 294 293 293 293 292 292 292 292 292 292 292 292 292 293 293 293 293 293 294 293 293 293 293 293 293 293 293 294 294 294 294 295 295 295 295 295 295 296 299 303 305 307 310 310 312 316 319 318 318 319 319 317 317 317 317 318 318 317 317 317 315 315 316 315 315 316 315 315 314
301 302 300 299 298 298 298 299 298 298 299 299 298 298 298 299 301 299 297 296 296 296 296 295 295 294 294 294 293 293 293 292 292 292 292 292 292 292 292 292 292 292 292 292 293 292 293 293 293 293 293 293 293 293 293 293 294 294 294 295 295 295 295 295 295 295 296 300 303 306 308 310 310 312 317 318 317 318 319 318 317 317 317 318 317 317 317 317 316 316 315 313 314 316 316 315 315
299 299 300 300 300 299 299 298 298 297 297 298 298 299 299 299 299 298 296 296 296 296 296 295 294 294 293 293 293 293 292 292 292 292 292 292 292 292 292 292 292 292 292 292 292 292 292 292 292 293 293 293 293 293 293 293 294 293 294 294 295 295 295 295 295 294 295 297 301 303 305 308 310 310 313 317 317 317 318 318 317 317 317 317 317 317 317 317 317 317 317 315 316 317 317 316 316
299 298 299 299 298 298 297 298 298 296 296 298 298 298 299 298 298 296 295 296 296 295 295 294 294 293 293 293 293 292 292 292 292 292 292 292 292 292 292 292 292 292 292 291 291 291 291 291 292 292 293 293 293 293 293 293 293 293 293 294 295 295 295 295 295 295 294 295 298 301 303 306 309 310 311 315 317 317 317 318 317 317 317 317 317 317 317 317 317 317 318 318 318 318 318 317 316
298 297 298 298 296 296 295 295 296 296 296 297 297 297 297 297 297 296 295 295 295 294 294 294 293 293 293 293 292 292 292 292 291 292 292 292 292 292 292 292 292 291 291 291 291 291 291 291 292 292 292 292 292 292 293 293 293 293 293 293 294 295 295 295 295 295 294 294 296 299 301 304 307 309 310 314 317 317 317 318 317 316 316 315 316 316 316 316 316 317 318 319 318 318 317 316 316
297 297 297 296 295 295 295 294 294 295 295 296 297 297 296 296 297 296 295 294 294 294 293 293 293 293 293 292 292 292 291 291 292 292 292 292 292 292 292 291 291 291 290 290 290 290 291 291 291 291 292 292 292 292 292 293 293 293 293 293 294 295 295 295 295 295 294 294 295 297 300 302 305 308 309 312 316 317 317 317 317 316 316 315 315 316 316 316 316 317 317 318 318 317 317 316 316
295 296 296 296 295 294 294 294 294 294 294 295 295 295 296 296 295 294 294 294 294 293 292 292 293 293 292 292 292 291 291 291 291 292 292 292 292 291 291 290 290 290 290 290 289 289 289 288 288 289 290 291 292 292 292 292 292 293 293 293 293 294 295 295 295 295 294 294 294 295 298 301 303 306 308 309 314 317 317 317 317 316 316 315 315 315 316 316 316 317 317 317 317 316 316 316 316
295 296 295 295 295 294 294 293 293 293 293 294 294 294 296 296 295 294 294 294 293 293 292 292 293 292 292 292 291 291 291 291 291 291 291 291 291 291 290 290 289 289 289 288 286 285 285 285 285 287 289 290 291 292 293 293 293 292 293 293 293 294 295 295 295 295 294 294 294 294 296 299 302 305 306 307 312 317 317 316 316 316 316 315 315 315 315 315 316 317 317 317 316 316 316 317 317
296 296 296 295 294 293 293 293 293 292 293 293 292 293 294 295 294 294 294 294 293 293 293 292 292 292 292 291 291 291 291 291 291 291 291 291 290 290 290 289 288 287 286 284 283 282 282 283 284 285 287 288 290 292 292 293 293 293 293 293 293 294 295 295 295 295 295 294 294 294 295 298 301 304 305 306 309 315 317 317 316 316 316 315 315 315 315 315 316 316 317 317 317 317 317 317 317
Wind_Speed
7 4 4 4 3 2 3 2 2 1 2 1 2 2 2 1 3 3 1 1 3 0 4 4 3 7 5 3 4 6 7 9 9 6 7 9 16 22 23 23 20 15 12 10 10 12 13 14 15 15 16 17 18 18 19 19 19 19 18 18 17 16 15 16 15 15 15 15 16 16 16 15 16 18 20 22 22 24 24 25 25 23 21 21 21 20 19 18 19 18 17 20 23 23 20 23 25
7 4 3 3 2 1 2 3 2 1 1 2 3 2 3 0 2 4 5 4 4 3 1 4 5 8 10 7 6 8 10 14 15 14 17 21 23 24 23 23 20 14 10 9 8 10 12 12 13 14 15 16 18 19 19 20 20 20 19 18 17 17 17 17 17 17 17 17 17 17 17 17 16 16 18 19 19 20 20 21 21 21 20 20 20 20 19 18 19 18 18 20 23 23 22 24 25
6 5 3 2 2 1 2 3 1 1 1 2 2 2 1 2 3 7 8 7 6 4 3 3 7 9 10 9 7 8 9 12 16 18 21 21 19 19 19 18 17 13 10 10 9 9 10 11 13 14 14 16 18 19 20 21 21 21 20 18 18 18 18 19 18 17 17 17 17 17 18 18 17 16 16 16 16 16 17 17 18 18 19 20 20 20 19 19 19 18 19 21 24 24 23 25 26
6 5 4 2 1 1 1 1 1 2 2 2 2 3 1 4 6 8 7 6 7 7 4 3 5 7 8 9 7 7 10 12 15 16 16 18 18 18 18 16 15 13 13 13 12 12 13 15 15 16 17 17 19 20 21 22 22 21 21 20 20 20 19 19 18 17 16 17 18 18 19 19 17 16 14 14 14 15 16 18 18 17 17 19 20 21 20 20 19 19 20 22 25 24 24 27 28
6 5 4 2 2 0 0 0 1 1 3 2 2 3 3 5 7 9 8 8 10 8 5 4 4 4 7 10 7 5 10 11 14 16 17 22 22 20 19 17 15 14 15 16 17 18 18 18 18 19 20 20 21 22 22 22 22 22 22 22 22 22 20 20 18 17 17 17 18 19 19 18 16 15 13 13 14 14 16 17 17 17 16 18 20 21 21 21 20 20 22 24 25 24 27 29 30
6 4 5 4 3 1 1 0 1 2 3 1 3 4 6 6 7 10 11 10 6 5 6 5 5 6 5 9 11 12 13 13 16 20 22 25 24 23 21 18 16 16 17 18 20 20 19 19 19 21 21 22 22 23 24 23 22 23 23 24 24 23 22 21 19 18 18 18 18 19 19 17 16 15 15 15 16 16 16 16 16 17 17 18 18 20 21 22 21 21 23 24 23 26 29 30 32
5 2 2 4 4 0 1 2 2 2 3 0 3 5 7 7 6 9 10 8 3 2 5 7 7 8 8 8 11 15 17 17 19 21 21 23 23 24 23 21 19 17 17 19 20 20 19 18 19 22 23 24 24 25 25 25 24 23 24 25 24 23 23 22 21 20 20 20 19 19 19 18 18 17 17 17 18 17 17 16 15 16 18 19 19 19 21 23 22 22 24 24 24 28 31 32 34
5 1 1 1 1 0 1 1 1 1 1 1 3 5 7 7 5 6 7 5 3 3 4 7 6 5 8 7 8 17 21 18 18 18 18 18 19 20 21 21 21 19 19 18 19 19 19 19 20 22 23 24 25 26 26 27 26 25 26 26 25 25 25 24 22 21 22 22 21 20 20 20 19 19 19 19 18 18 17 16 16 16 17 19 20 19 20 23 22 23 25 24 26 31 33 36 35
4 1 1 1 1 0 0 0 0 0 1 2 4 6 6 7 4 4 5 4 5 5 4 6 4 5 9 8 11 19 20 17 17 16 15 16 17 17 18 19 19 21 21 20 20 20 20 20 21 22 23 24 25 26 27 28 28 27 27 26 26 26 26 25 23 23 24 23 22 21 22 21 20 20 20 20 19 18 18 17 18 17 17 18 20 20 20 23 24 25 27 25 28 31 35 38 34
3 2 0 1 1 1 0 0 1 0 1 1 5 7 5 4 3 4 5 6 6 5 6 6 6 10 13 12 15 16 15 18 17 14 14 15 17 18 18 18 18 19 21 21 21 21 21 21 22 23 24 24 24 25 27 29 30 30 30 28 27 27 27 26 24 25 25 24 23 23 23 23 22 21 21 21 20 19 19 19 19 18 16 17 19 19 20 23 25 27 27 26 29 33 36 37 35
4 2 0 1 0 2 2 2 2 1 2 2 4 4 3 2 3 4 5 7 8 6 8 7 5 9 12 12 13 15 18 17 15 15 17 19 20 19 18 18 17 17 20 22 23 23 22 22 23 24 24 25 25 26 27 28 30 32 32 30 28 29 29 27 26 26 26 25 24 24 24 24 23 22 22 22 21 20 19 20 19 18 17 18 18 18 20 24 28 28 27 27 30 34 37 37 35
4 1 2 2 1 2 2 3 4 4 3 1 1 3 1 1 3 5 5 7 9 10 8 6 5 6 8 9 11 15 18 16 17 21 22 22 23 21 19 18 18 17 18 20 23 24 24 24 24 25 26 26 26 27 28 28 30 31 32 32 30 30 30 29 28 27 27 26 25 24 25 26 25 24 24 23 22 21 20 21 20 19 18 18 18 19 20 25 30 29 26 27 31 35 37 36 34
3 0 3 1 1 1 1 2 3 5 2 2 3 2 2 1 3 9 10 9 9 10 7 6 7 8 8 10 13 13 15 18 22 24 24 24 24 23 22 20 19 18 18 19 22 25 26 26 26 27 28 28 28 29 29 29 30 32 32 32 32 31 31 31 29 28 28 26 25 25 25 26 25 25 24 24 23 22 21 22 21 20 19 19 18 19 22 27 32 29 25 28 33 35 35 35 33
1 1 3 0 0 1 1 3 2 4 2 4 2 0 2 3 6 8 10 12 9 6 9 10 8 7 7 8 11 12 16 23 24 26 26 25 25 25 25 23 22 20 19 19 21 24 27 28 28 28 29 29 30 30 31 31 31 32 31 32 33 32 32 32 31 30 29 27 26 26 26 26 26 25 24 24 23 22 22 22 21 21 21 20 18 19 23 28 32 29 25 29 35 35 33 34 32
1 2 1 1 1 1 2 1 2 2 2 4 2 0 3 4 6 6 7 11 10 11 14 13 6 4 5 6 11 17 21 25 26 28 28 25 24 25 26 26 25 24 22 21 20 22 25 28 29 30 30 30 31 32 33 32 32 32 31 32 33 32 32 33 32 31 30 28 27 27 26 26 26 25 23 23 23 22 22 21 22 21 21 20 18 19 24 28 31 30 27 31 37 35 32 32 33
2 2 1 1 1 1 1 0 1 2 2 4 2 4 5 3 5 6 7 11 14 16 15 10 8 9 12 14 18 22 23 26 29 30 27 24 24 26 29 30 29 29 28 26 23 23 24 26 29 31 32 31 31 32 33 32 31 31 31 31 33 33 33 34 34 33 31 29 28 27 27 26 26 25 23 22 23 22 22 22 22 21 21 19 17 19 25 29 30 29 27 33 38 35 32 33 35
1 2 2 1 1 0 1 1 0 3 6 5 2 4 8 6 5 9 15 16 15 16 16 14 13 13 16 18 21 24 26 30 31 29 26 25 26 29 34 35 35 34 33 32 29 27 25 26 28 31 33 32 32 31 32 32 31 31 31 32 33 34 34 34 35 34 32 31 29 28 27 26 25 24 23 22 22 22 22 23 23 22 21 19 17 18 24 30 31 31 29 33 39 39 37 37 37
1 2 2 0 1 1 2 1 2 4 8 10 9 5 8 8 7 12 17 13 11 14 16 15 15 15 19 23 27 28 28 29 29 28 27 28 30 31 32 34 36 36 36 35 34 32 30 29 29 31 32 33 33 31 31 32 32 31 31 32 33 34 35 35 36 35 34 33 31 29 28 27 25 23 22 23 22 21 23 23 23 23 21 18 17 17 23 30 32 32 33 36 40 41 40 35 36
1 1 2 1 2 2 1 1 2 3 8 16 16 8 8 8 6 11 11 12 13 11 10 12 17 22 25 27 32 34 31 32 33 31 30 31 32 31 31 32 33 33 32 32 33 33 32 32 33 34 34 34 34 33 32 32 32 32 32 33 33 34 36 36 37 37 36 34 32 30 29 28 26 24 24 23 21 21 22 22 22 22 20 17 17 18 21 29 34 34 35 40 41 40 37 33 35
0 2 2 2 2 0 1 1 1 3 8 15 16 11 10 7 5 7 8 14 13 8 11 15 18 24 30 30 33 37 35 35 36 35 34 34 34 33 33 33 32 31 29 28 28 29 30 31 33 35 37 37 37 36 35 33 33 33 33 33 33 34 35 37 38 38 37 35 32 29 29 30 27 25 25 23 21 21 21 21 21 22 20 17 16 18 21 27 36 42 42 40 39 38 36 33 34
1 2 2 4 2 1 2 1 2 2 6 12 16 13 10 8 7 6 7 10 8 10 16 17 18 23 28 29 29 33 33 33 33 34 34 34 33 31 31 30 30 30 29 27 26 26 27 27 29 31 35 37 39 39 38 37 35 35 35 34 35 35 35 37 38 39 38 36 33 29 30 31 28 26 26 24 21 20 20 20 21 21 20 18 16 17 22 22 24 39 45 39 38 37 36 34 34
2 3 2 2 2 1 3 2 2 3 7 12 15 11 8 11 8 5 5 6 7 13 17 18 22 24 25 25 25 27 28 28 29 30 30 30 30 30 30 29 29 29 28 27 26 26 25 25 26 27 30 34 37 40 41 40 39 38 36 35 36 37 36 37 38 40 38 36 35 31 30 32 29 28 28 27 24 21 20 21 22 22 21 20 18 17 21 20 17 27 33 34 37 37 35 34 34
2 2 2 2 4 2 1 1 3 6 8 10 12 9 9 11 6 5 7 8 9 13 15 19 23 23 20 20 22 23 23 25 26 27 29 29 30 31 32 33 34 34 32 29 27 27 26 25 25 25 25 28 32 37 41 43 42 41 39 38 37 38 40 39 39 40 40 38 36 33 31 33 32 30 30 29 27 24 22 23 23 23 23 22 22 21 21 21 20 20 21 25 29 31 31 30 30
3 2 1 1 4 2 2 3 7 9 9 11 12 12 12 9 5 7 9 7 7 11 17 22 21 18 15 15 18 20 22 24 25 27 28 30 31 32 34 35 37 36 35 33 31 30 28 26 26 25 24 24 27 30 35 41 43 43 42 41 39 39 40 42 41 39 40 40 38 34 32 33 34 33 32 30 28 27 24 24 24 24 26 25 24 25 24 23 23 25 27 24 23 27 29 28 29
4 3 3 2 2 2 4 5 8 7 8 10 10 14 11 4 5 7 5 7 9 14 20 19 16 14 14 15 19 21 24 27 29 31 30 32 32 32 33 35 37 37 38 37 35 34 32 29 26 26 25 24 24 26 29 35 41 43 43 43 42 41 41 42 42 40 39 41 39 36 34 34 35 34 33 31 29 27 26 24 23 25 28 29 27 26 26 26 25 28 31 28 23 27 29 27 28
3 5 6 9 6 4 5 4 4 4 4 4 4 13 9 5 5 3 5 11 14 19 18 16 15 16 17 20 23 25 29 31 32 34 35 36 36 36 36 36 37 38 39 39 39 38 36 34 30 26 26 25 24 25 27 29 34 39 41 42 41 42 43 42 44 42 38 42 41 37 36 35 35 35 33 32 30 28 27 24 23 24 29 33 31 29 29 29 30 30 30 29 26 26 26 25 25
3 8 11 13 11 6 3 4 3 3 3 4 3 15 11 6 5 3 9 13 21 21 16 18 18 20 22 24 26 28 31 32 33 37 39 40 40 41 41 39 38 37 38 38 39 41 40 38 35 30 26 24 24 24 26 27 29 33 38 40 37 38 42 42 44 44 40 43 43 39 38 37 36 35 35 33 31 30 27 26 24 23 30 35 32 29 29 29 29 30 29 27 27 26 24 22 23
5 8 11 14 9 3 5 5 3 3 5 5 5 14 11 5 1 6 11 17 23 19 16 20 21 21 23 23 26 29 30 31 35 39 41 41 41 41 42 42 41 38 38 38 38 39 40 40 39 36 31 25 23 24 25 26 27 29 33 38 36 34 39 41 39 42 47 47 43 41 40 39 38 36 36 34 32 32 29 28 26 25 32 35 32 29 29 27 25 26 27 25 26 27 25 23 25
4 4 7 11 7 5 8 5 4 2 4 3 5 8 6 2 2 7 13 18 19 13 17 19 19 20 21 22 24 26 29 32 36 39 39 40 40 41 41 41 42 41 40 39 38 37 38 40 40 39 37 33 26 22 22 25 26 27 30 34 35 35 39 42 37 39 49 49 44 43 41 39 39 37 37 36 32 32 31 30 28 28 33 35 33 32 30 27 24 24 25 25 26 28 28 27 27
3 1 2 7 7 2 6 7 6 2 6 4 3 5 4 3 3 6 11 17 13 11 18 17 18 19 20 21 22 23 27 31 32 34 37 40 41 42 42 41 41 41 40 39 38 38 38 38 38 39 39 38 34 25 20 23 25 27 30 32 33 35 39 44 43 40 44 48 46 44 42 41 40 39 39 37 33 32 32 32 30 30 34 34 33 33 32 29 26 26 26 26 27 30 32 31 30
2 1 2 2 4 5 4 8 7 4 5 8 8 5 5 8 6 6 11 15 8 14 18 16 18 18 19 20 21 22 24 26 27 32 38 40 41 43 43 43 43 41 40 39 39 38 36 35 35 36 37 38 36 31 24 21 23 26 29 32 33 34 38 43 46 44 41 44 47 46 44 43 41 40 41 38 34 32 32 33 33 35 36 37 37 35 34 32 30 29 29 29 30 32 33 32 32
1 1 2 3 3 9 9 6 8 8 5 8 7 3 6 9 8 11 15 9 11 18 18 16 17 17 18 19 20 21 22 27 31 36 41 42 42 43 43 44 44 43 42 40 39 39 37 35 33 33 34 35 36 34 29 23 23 24 27 30 32 33 37 41 44 46 44 41 44 48 45 44 43 41 41 40 36 33 34 34 36 39 39 38 39 37 36 34 33 32 31 32 33 34 34 33 34
2 3 5 5 5 9 9 3 8 10 9 4 3 3 6 9 10 17 16 10 21 20 16 16 16 16 17 17 19 20 22 27 32 36 41 42 42 43 43 43 44 44 43 41 40 40 39 37 34 33 33 33 33 34 32 28 25 24 25 27 30 33 37 41 42 45 47 42 43 46 44 43 43 42 41 40 39 36 35 35 37 41 41 40 38 37 36 35 34 34 34 35 37 37 36 35 35
3 4 5 6 7 8 9 2 5 11 10 5 2 1 6 10 12 19 11 17 23 18 16 15 15 16 16 17 19 21 23 27 29 32 36 38 39 41 42 43 45 45 45 44 42 41 40 39 37 34 33 32 31 31 32 31 28 25 24 24 27 31 35 39 41 42 44 44 45 45 44 45 44 43 42 41 41 40 37 36 39 43 43 41 40 38 36 36 35 35 36 37 38 39 39 38 37
6 6 6 7 6 7 10 9 6 12 11 9 6 1 5 11 13 16 12 23 22 18 15 14 15 16 16 17 18 20 23 26 26 29 34 36 37 39 41 42 44 45 45 45 44 43 42 41 40 37 33 31 31 30 30 30 30 27 24 23 25 29 33 37 38 40 42 44 46 47 47 48 47 45 44 43 43 42 39 37 39 43 45 44 44 41 39 38 36 36 38 40 39 39 40 39 37
7 8 6 8 9 7 10 11 8 13 14 10 7 7 8 10 13 12 17 23 20 17 14 14 15 15 16 16 17 18 20 23 24 27 34 37 37 38 39 41 43 42 42 42 42 43 43 43 43 42 37 33 31 31 31 30 30 30 26 23 24 27 32 37 39 40 40 43 46 47 48 49 49 48 47 46 45 44 42 40 40 42 44 46 47 46 44 41 38 38 40 42 44 44 40 39 38
6 7 6 8 10 7 8 11 6 12 14 9 10 13 9 10 15 10 20 19 18 16 14 14 14 13 13 13 14 16 17 20 21 23 30 35 39 40 38 39 42 42 41 40 40 41 41 42 44 44 42 37 32 31 32 32 32 31 30 27 24 25 29 35 40 41 39 41 44 45 47 49 51 51 51 48 47 46 45 44 44 43 44 47 49 49 46 42 39 40 41 41 46 48 44 42 40
5 6 7 8 8 9 11 9 4 11 11 10 16 17 8 10 13 11 18 15 15 14 14 14 13 12 12 13 13 14 15 17 19 23 27 32 40 42 40 39 40 42 41 40 39 39 38 39 42 45 46 42 36 32 32 32 31 31 31 29 27 26 26 30 36 41 41 40 43 44 44 48 51 51 53 51 49 49 49 49 46 43 44 47 49 49 46 42 40 41 42 42 46 50 48 47 46
5 5 6 7 6 10 9 2 4 11 8 11 17 14 9 9 6 14 15 14 14 12 13 12 13 15 15 15 14 15 18 20 22 26 27 31 38 41 42 41 39 41 40 37 37 39 39 39 39 41 45 47 42 36 34 34 32 31 30 29 29 29 28 29 32 37 43 45 44 45 45 47 48 47 48 51 51 52 50 49 47 44 44 47 50 51 48 44 42 44 45 45 48 50 48 49 50
3 4 5 6 7 9 5 1 9 12 7 8 14 12 8 2 8 13 12 13 12 8 10 11 13 15 15 14 14 17 20 23 25 28 29 31 34 37 42 41 37 38 37 36 38 39 40 41 40 40 42 46 46 41 38 37 35 31 29 27 28 31 31 30 30 32 38 45 46 45 46 46 47 47 46 47 52 55 51 48 47 45 44 47 52 54 52 47 45 46 48 48 50 52 50 49 50
1 2 3 5 7 7 7 10 16 13 4 3 11 12 3 5 6 7 9 10 9 7 10 15 15 14 14 13 15 17 18 22 25 28 30 30 33 39 45 44 41 38 35 38 42 40 39 41 42 42 42 44 47 46 41 40 39 35 32 29 27 30 32 31 30 32 35 40 46 46 45 45 46 49 49 49 52 54 50 48 47 46 44 47 53 57 55 51 48 47 49 52 54 55 54 51 51
2 2 2 5 7 8 11 14 15 12 5 6 11 11 3 3 3 7 7 6 7 9 12 16 16 14 15 16 17 19 20 22 24 27 30 31 33 39 44 46 47 45 42 44 46 44 41 41 41 43 43 44 47 48 44 42 42 39 37 35 31 29 31 32 31 32 36 37 42 46 46 45 47 49 51 52 52 50 48 47 48 47 45 48 54 57 55 52 50 48 49 53 55 55 55 54 54
4 1 2 4 6 9 13 13 10 9 9 5 8 6 8 5 2 9 8 6 6 8 10 13 15 15 16 18 20 23 25 27 30 34 37 38 37 38 40 42 44 46 48 50 49 49 47 45 44 43 43 44 46 49 45 41 41 40 39 38 35 30 30 33 34 34 36 38 40 44 46 45 48 50 52 54 53 50 49 49 50 49 46 49 54 55 55 54 51 50 50 52 55 55 54 55 56
2 1 2 5 7 10 12 11 7 7 10 6 2 5 9 7 1 9 8 5 5 8 11 13 16 18 19 21 23 28 31 33 36 39 41 41 40 39 40 41 43 45 49 52 51 51 50 49 49 47 44 43 45 49 47 41 39 38 38 39 37 32 29 30 34 35 35 37 39 41 44 46 48 49 50 54 53 49 49 50 50 50 50 50 52 54 56 53 52 52 51 53 55 54 53 55 57
1 2 3 5 6 10 10 9 9 7 6 6 4 5 6 6 2 5 6 4 6 10 12 13 16 19 21 23 28 33 34 35 37 39 41 41 41 41 41 42 43 44 49 53 54 53 52 51 52 51 49 45 44 47 48 44 40 38 37 37 38 36 32 28 30 34 34 35 37 38 42 45 47 48 49 53 53 49 49 51 50 49 50 51 51 54 55 53 53 53 53 57 58 55 54 54 55
2 2 4 5 6 8 7 6 8 6 5 8 5 2 4 6 4 2 2 4 6 9 10 11 14 18 21 27 32 34 35 35 36 38 39 40 42 43 43 43 44 44 47 52 55 55 54 53 54 53 52 49 45 44 47 47 43 41 39 38 39 39 36 30 28 31 33 33 34 36 39 44 46 47 48 51 53 50 49 51 53 52 51 52 53 55 55 53 53 53 55 59 59 57 56 53 53
4 3 3 5 6 6 6 5 4 4 4 5 2 3 2 6 3 1 1 4 5 8 9 11 15 20 26 31 33 34 34 34 35 37 38 40 42 43 43 43 45 46 46 49 52 53 54 54 55 53 53 53 50 45 45 47 45 43 41 39 39 39 39 36 31 30 32 33 33 34 36 42 47 47 48 50 52 52 51 51 54 55 53 53 54 54 54 54 53 54 57 58 58 58 57 53 51
3 2 5 7 5 4 5 4 1 2 3 3 6 3 3 7 3 3 5 4 5 7 10 12 16 23 29 32 34 34 33 33 36 36 37 40 43 44 45 45 46 46 47 48 49 50 51 52 54 54 52 53 52 48 45 46 46 44 42 40 39 39 39 38 37 34 33 33 33 32 32 36 44 49 48 49 51 53 53 52 53 54 53 53 54 53 54 54 51 53 58 58 58 58 56 54 53
2 4 5 5 5 4 4 4 2 6 4 6 5 4 5 10 8 3 7 5 6 8 11 14 17 23 28 31 32 31 31 34 36 36 38 41 44 46 47 47 48 48 47 48 48 50 51 51 51 51 51 51 51 49 46 45 47 46 43 40 39 39 39 38 39 37 36 35 35 33 31 31 37 49 51 50 52 54 52 52 54 53 53 55 54 52 54 54 51 53 57 57 57 57 55 55 57
4 3 2 2 4 6 6 6 5 6 4 4 2 3 5 10 6 6 6 5 7 11 14 14 16 21 26 28 30 29 31 35 36 36 39 42 46 48 48 49 49 49 49 49 49 51 51 51 50 48 49 50 49 50 49 45 46 47 44 42 39 39 38 38 39 39 37 37 37 37 34 30 31 41 52 52 52 53 52 52 54 54 53 56 54 53 55 55 55 57 57 56 56 57 57 57 58
4 3 1 2 1 4 6 5 5 7 9 6 4 3 4 5 1 9 6 2 8 15 16 13 16 22 27 29 29 29 32 34 36 38 40 43 47 49 50 51 51 52 52 51 50 50 50 51 51 50 49 48 47 49 51 46 45 46 45 42 40 38 37 37 38 39 38 37 38 39 38 34 30 33 45 54 52 51 52 52 53 54 55 57 57 55 55 55 57 59 59 58 56 56 59 58 54
3 2 2 3 1 4 6 3 2 5 11 9 4 4 4 1 6 9 3 6 13 18 16 16 21 27 29 29 29 30 33 36 39 42 44 45 45 48 52 55 54 54 54 54 53 51 51 52 51 50 49 48 47 49 51 48 44 46 47 45 41 38 36 37 37 38 39 37 38 40 40 39 34 32 37 49 54 52 53 53 52 54 56 58 58 55 54 55 58 60 59 59 57 57 59 58 53
2 2 2 0 2 2 5 3 0 2 8 7 4 6 7 2 6 7 2 10 15 15 16 21 27 30 31 32 32 34 36 40 44 46 47 48 49 52 57 58 55 54 56 56 54 52 50 49 48 49 48 48 48 48 50 49 46 46 48 46 43 39 36 36 37 39 39 37 37 39 40 40 38 34 34 41 53 54 54 55 54 55 57 57 57 55 54 55 58 61 61 59 59 59 59 57 54
1 2 1 2 3 2 1 2 2 4 8 6 6 10 10 6 2 2 5 13 15 15 18 24 30 33 34 35 36 37 40 45 48 48 48 52 55 57 59 59 56 54 55 55 53 51 48 46 45 47 48 48 49 49 48 48 47 48 48 47 45 41 37 36 36 38 40 39 36 38 39 39 40 37 33 37 50 56 55 57 56 56 57 56 56 56 55 55 57 60 61 59 59 61 60 57 55
2 2 2 1 3 3 3 1 3 6 8 7 8 11 9 7 3 2 8 14 15 17 20 23 28 32 35 37 38 40 43 46 48 48 52 57 59 60 61 59 57 58 58 53 47 43 40 41 43 45 47 48 49 49 48 48 47 47 48 48 46 42 38 37 36 36 39 40 37 36 37 37 39 38 33 33 44 56 55 57 59 58 57 57 57 58 57 56 58 59 59 59 60 63 62 59 57
2 0 1 1 2 2 2 1 1 5 7 7 8 10 6 2 1 4 11 13 13 18 21 21 26 32 35 37 39 41 44 46 47 48 53 58 59 61 62 58 55 55 53 46 44 47 49 52 54 52 48 47 48 48 48 48 47 46 47 48 46 44 40 37 36 36 38 40 39 37 35 35 37 39 34 31 40 55 57 57 60 59 58 59 59 60 59 58 59 59 58 60 63 63 60 58 59
3 4 4 3 1 2 2 1 2 3 6 6 7 10 6 2 3 6 11 11 12 18 20 21 27 34 36 37 41 44 45 46 47 48 54 61 60 58 59 56 50 48 50 53 57 61 60 58 56 54 50 44 43 44 46 46 48 48 47 47 45 43 41 39 37 36 38 40 41 38 35 33 36 38 35 30 36 53 60 58 59 60 59 61 61 61 61 61 60 60 60 61 63 61 58 58 61
5 6 5 4 4 3 3 4 3 2 4 4 5 11 10 2 1 5 6 7 13 20 23 23 29 35 37 39 43 46 47 47 49 52 57 64 62 55 53 53 49 48 54 59 58 53 48 45 44 45 47 45 40 39 40 43 46 48 48 48 46 42 41 40 38 37 38 40 42 40 36 33 34 37 37 30 31 46 60 60 59 61 61 62 64 62 62 62 62 62 62 63 62 60 59 60 61
Wind_Direction
20 19 12 11 43 131 138 190 214 135 242 69 54 350 87 51 308 288 257 222 289 216 223 244 193 182 200 260 270 287 278 261 272 271 289 305 302 301 299 300 299 304 298 266 244 234 231 228 227 229 233 233 230 227 227 228 227 228 230 229 230 236 239 240 242 249 256 258 259 260 263 263 260 258 257 256 258 262 265 266 265 262 258 252 248 247 246 243 240 234 228 225 232 236 229 224 212
19 25 12 10 42 128 179 239 269 70 252 88 73 3 45 111 258 327 353 350 354 27 282 231 212 211 231 266 277 283 265 249 258 261 273 288 294 297 299 298 295 295 279 247 228 223 226 227 227 230 233 233 231 229 229 228 227 229 230 230 233 237 236 237 241 247 252 256 257 257 261 265 265 263 260 256 255 260 264 266 264 260 254 249 247 245 243 240 235 230 225 224 229 233 230 223 207
20 24 20 24 56 94 186 237 313 2 16 57 61 79 45 319 328 351 355 353 352 330 306 219 220 231 238 257 262 269 274 263 265 266 274 290 297 301 308 305 295 283 260 240 224 225 233 236 236 234 235 234 232 232 231 231 228 228 228 230 236 239 236 236 240 245 247 252 256 258 263 266 263 261 259 254 253 256 260 264 261 256 252 249 247 245 241 236 232 227 223 224 228 230 228 216 199
20 26 34 47 152 104 188 246 7 335 26 30 29 86 37 324 336 335 338 342 325 297 272 221 232 239 240 261 280 272 273 278 285 281 280 297 304 307 311 307 296 275 255 247 241 245 252 255 250 242 240 237 234 233 232 232 230 228 229 231 236 238 237 239 240 241 242 247 253 258 263 262 258 253 252 251 251 253 257 261 258 253 252 251 248 246 241 233 229 226 226 225 228 228 222 214 199
19 29 41 71 191 56 286 200 55 320 29 15 340 44 7 329 325 321 321 324 316 290 234 226 259 257 248 258 266 265 278 288 302 301 295 304 311 310 309 304 297 278 259 251 253 258 261 261 254 247 243 240 237 235 233 232 229 227 230 232 236 237 237 240 240 240 239 242 248 255 258 256 251 244 242 241 240 244 249 255 255 252 251 252 249 246 240 233 226 227 230 227 230 229 218 212 200
17 35 55 90 126 93 218 83 42 15 51 348 326 8 356 343 326 320 317 320 315 270 228 225 269 287 270 252 250 260 281 295 304 307 304 307 310 308 306 300 293 284 270 257 258 262 262 259 252 249 244 241 240 239 237 234 230 227 230 234 236 236 236 238 239 240 238 239 242 247 250 249 244 236 235 236 235 238 244 246 245 248 249 249 249 244 240 233 224 227 232 230 232 226 216 210 198
13 29 63 105 107 52 262 21 13 35 79 240 335 348 347 355 333 320 318 332 360 251 232 233 268 285 279 272 271 279 293 299 304 313 314 312 311 308 304 297 289 283 275 263 260 261 261 257 251 249 245 242 241 241 240 238 235 231 232 234 235 236 236 235 237 238 236 236 237 240 243 242 241 236 235 237 238 240 244 242 236 242 246 248 248 243 238 231 225 227 233 235 229 216 207 202 194
9 352 252 208 121 6 295 19 355 24 89 220 303 299 321 339 320 308 316 326 326 303 256 254 265 270 283 278 273 296 310 313 314 327 329 323 319 312 306 297 287 280 274 267 261 258 257 255 251 250 246 244 242 242 241 241 239 235 234 234 234 235 234 232 233 234 233 235 236 238 239 238 239 237 236 237 240 243 245 242 235 235 241 246 244 241 236 227 223 227 233 233 219 206 196 193 191
353 349 239 243 164 112 146 276 356 39 242 231 268 262 285 311 295 275 297 300 292 294 266 264 245 252 301 297 279 299 318 328 329 334 337 333 329 322 315 304 289 279 273 268 261 256 254 253 251 251 248 245 245 245 244 243 240 238 238 235 234 235 234 229 230 231 231 234 235 237 238 238 238 238 239 239 241 243 245 242 237 235 237 243 241 239 235 225 221 226 234 227 208 202 197 194 192
318 349 55 203 195 276 213 163 60 163 262 284 277 274 276 289 269 250 275 301 304 294 281 284 249 253 292 301 293 309 328 333 333 334 337 332 328 323 319 313 300 283 273 268 262 256 253 252 250 250 248 246 247 247 247 247 244 241 241 240 237 236 234 230 230 230 230 231 231 235 238 239 238 239 240 240 242 244 245 241 238 239 238 242 239 236 235 223 217 226 235 223 203 198 196 195 193
283 358 358 223 299 317 2 338 334 344 325 313 268 267 290 266 243 241 245 291 303 286 278 285 269 261 286 292 292 322 333 332 336 335 333 327 325 323 319 316 310 296 279 269 262 257 253 251 249 247 247 247 249 249 248 249 249 246 243 243 242 238 234 232 232 230 229 230 230 233 237 239 238 237 238 238 241 245 246 242 238 240 240 241 236 233 234 219 213 225 231 219 202 193 190 190 191
283 23 278 251 18 348 5 319 318 329 314 317 106 115 23 218 239 307 304 305 305 292 279 259 283 297 295 293 295 327 337 337 337 332 330 327 326 323 320 316 312 306 291 277 266 260 255 251 249 246 246 248 250 250 249 248 250 250 246 244 244 242 236 233 234 232 230 230 231 234 236 239 238 236 237 237 240 244 247 245 239 240 242 241 236 231 230 217 214 223 228 219 205 194 190 190 190
310 26 279 253 36 333 18 296 311 319 309 91 56 71 13 273 290 331 327 307 295 294 298 267 283 295 284 290 302 329 343 338 334 330 328 326 325 323 320 317 314 310 301 288 274 265 259 255 251 248 246 248 249 249 249 248 250 251 247 242 242 243 238 235 235 234 232 232 232 234 236 238 239 237 235 236 239 242 244 245 241 241 243 242 238 230 226 218 217 223 228 220 206 196 191 190 190
319 222 292 94 84 249 234 281 331 321 16 76 56 114 327 311 306 326 321 310 304 291 302 299 288 276 273 288 311 335 337 331 331 329 328 325 325 325 322 319 315 310 304 296 285 273 264 259 255 252 250 249 248 248 249 249 249 250 247 241 241 243 240 236 235 234 234 235 234 235 237 239 241 239 236 237 240 242 244 243 242 241 242 242 238 229 222 219 219 225 227 214 205 201 194 190 190
157 192 295 130 163 200 208 277 359 313 21 54 45 7 282 288 314 314 307 311 309 298 302 305 283 271 318 315 315 325 324 326 331 331 332 332 333 335 333 328 322 314 306 298 291 282 271 264 259 256 254 252 250 248 249 250 250 248 246 241 240 242 240 237 236 235 235 236 235 236 239 241 243 242 239 238 239 244 247 243 241 241 241 240 238 231 220 218 220 225 224 208 201 202 197 192 191
143 172 264 181 183 230 164 190 323 278 358 19 18 360 311 297 337 318 308 303 296 301 303 298 274 279 303 298 305 320 325 327 330 332 335 336 338 341 340 337 333 326 316 305 294 287 279 271 263 259 258 255 253 251 251 251 250 247 244 241 239 241 241 238 236 235 236 236 236 238 241 242 242 243 241 239 239 245 248 244 242 240 240 238 237 235 223 221 221 224 225 212 205 199 191 185 184
173 201 254 210 173 196 150 188 5 327 334 343 10 7 327 327 357 329 320 304 289 299 303 303 301 299 310 317 325 329 330 333 334 337 338 337 339 341 341 339 337 333 326 317 304 293 284 278 270 263 261 258 256 254 253 251 250 248 244 242 239 239 240 239 237 234 236 237 237 238 242 242 239 240 238 237 239 244 246 244 243 237 235 237 237 237 228 225 225 226 220 208 203 195 185 181 176
254 226 267 207 119 100 126 139 36 330 325 325 324 348 329 330 352 330 321 303 287 299 308 321 330 334 338 341 341 338 338 345 350 349 347 346 344 343 341 338 335 333 329 324 316 305 293 284 277 269 264 261 259 256 254 251 250 249 246 244 240 238 238 240 239 235 235 236 237 238 241 241 236 234 234 235 238 243 244 242 243 239 234 236 238 238 231 226 225 225 213 195 189 185 180 176 169
278 236 277 55 91 75 76 69 52 325 319 317 316 334 326 321 342 328 316 307 304 307 327 349 350 352 351 346 346 348 351 357 2 360 358 357 354 349 343 339 334 331 329 325 320 313 302 292 284 276 270 264 261 258 254 251 249 248 246 245 242 238 237 240 240 235 233 235 238 238 239 239 233 231 233 235 235 239 243 241 243 243 238 235 234 236 231 227 226 222 208 192 185 183 180 172 165
218 250 290 69 93 41 190 230 316 311 310 307 309 321 317 320 344 321 302 305 312 342 8 5 354 354 354 347 344 347 352 357 2 2 1 2 359 355 349 344 337 332 330 324 318 313 307 300 291 284 277 270 264 260 257 253 250 248 246 243 242 239 238 241 240 236 233 233 238 238 236 236 231 230 234 234 233 237 241 240 241 241 241 235 231 234 226 226 223 212 202 194 187 181 177 172 168
181 244 329 78 115 293 137 203 295 293 298 296 299 304 308 325 332 306 294 309 334 14 8 2 356 355 352 344 338 341 348 354 357 359 1 2 0 358 353 349 343 339 334 326 318 314 313 306 298 290 283 276 268 264 260 257 254 251 248 243 240 237 237 240 238 236 235 234 236 236 234 232 229 230 232 232 229 233 236 234 236 237 238 233 226 226 213 210 200 185 183 184 182 175 169 170 171
226 224 310 99 154 319 97 120 294 302 302 292 292 299 312 315 310 294 293 303 344 2 358 1 1 356 349 344 344 345 349 354 355 358 2 5 6 4 360 356 353 348 342 335 325 317 316 311 305 297 287 281 275 268 264 261 257 255 252 246 240 236 234 236 237 236 236 235 237 235 231 229 228 228 231 230 226 230 232 227 230 232 233 229 220 210 197 193 170 158 165 170 173 170 166 169 167
274 203 243 185 175 284 76 166 285 297 292 285 290 302 309 301 300 311 293 286 322 352 3 5 0 352 348 352 357 358 5 9 8 10 12 14 15 14 11 10 7 2 356 349 338 327 319 312 308 302 290 282 279 274 268 264 260 257 255 250 243 239 236 234 235 237 236 235 236 233 229 228 227 227 229 229 227 231 233 226 225 228 229 224 217 206 193 191 179 168 174 172 172 167 161 166 167
255 246 267 176 164 235 264 259 285 279 267 275 289 296 293 291 309 310 301 311 344 7 9 3 354 352 359 8 9 13 22 23 22 22 21 21 21 19 18 19 16 12 7 0 352 344 334 321 311 303 294 285 280 277 274 268 264 260 257 253 247 241 239 235 233 234 235 234 235 233 229 228 227 227 228 229 231 233 235 229 223 225 226 219 211 204 196 190 181 182 182 176 180 172 160 163 168
213 275 322 298 176 217 269 280 276 257 261 273 282 293 296 330 322 286 313 25 33 12 5 3 2 11 23 27 29 31 31 30 29 28 27 25 23 21 19 19 19 18 15 10 3 356 349 338 322 306 298 293 285 279 277 273 269 266 259 254 250 245 241 236 233 232 235 234 233 234 232 230 228 227 227 228 230 231 231 228 222 224 227 219 207 198 195 190 184 185 176 165 177 179 168 165 167
212 289 313 300 298 297 283 267 240 219 257 263 286 302 312 17 320 237 82 47 22 4 12 24 29 39 43 44 42 39 37 35 31 30 30 29 26 23 20 18 18 18 17 15 11 6 359 352 343 325 305 293 290 285 279 274 271 269 262 256 251 247 242 238 234 231 234 234 233 234 232 232 229 227 226 225 227 227 227 226 223 223 223 219 212 201 197 192 186 184 173 164 171 178 176 170 168
305 301 304 293 290 295 257 175 155 141 154 150 315 313 318 335 303 125 76 34 6 2 32 44 48 56 49 48 45 40 38 33 30 29 30 28 25 23 21 18 16 16 15 14 13 10 6 1 357 349 328 304 294 287 280 273 268 268 265 259 252 247 243 240 235 230 232 234 233 232 232 233 230 227 225 223 224 224 226 226 222 222 218 215 211 204 200 196 187 181 175 172 171 172 176 173 170
312 312 305 290 278 204 162 132 87 111 124 145 260 305 317 314 315 76 41 15 357 5 54 56 57 58 47 46 42 39 36 30 28 27 26 23 20 19 18 16 13 12 11 10 10 9 7 4 2 0 352 334 309 292 282 276 270 266 265 263 257 251 246 241 234 230 232 234 234 232 231 232 229 227 225 224 224 224 225 225 221 220 214 206 201 200 200 198 190 184 183 181 178 174 174 173 171
304 322 305 301 308 161 151 92 42 115 110 132 238 296 312 278 73 56 22 3 348 17 69 63 59 53 45 45 40 38 32 28 27 23 22 20 17 16 15 14 11 9 7 6 5 4 4 3 2 1 359 354 337 311 288 278 274 269 266 264 259 255 252 245 236 232 235 235 233 232 230 231 229 227 225 224 225 225 224 224 219 214 207 200 198 199 200 199 194 190 187 184 182 178 174 175 172
281 295 253 313 336 174 142 82 24 66 105 64 322 318 318 308 33 56 12 351 347 55 76 64 58 52 45 44 39 37 30 26 24 20 20 18 16 14 12 11 10 8 5 3 1 1 1 360 358 358 358 358 354 339 307 284 276 270 266 265 260 257 257 251 243 236 236 235 233 232 229 230 229 227 226 224 225 225 223 222 216 208 204 200 199 200 201 202 197 192 188 184 183 179 175 177 176
287 228 182 353 352 312 13 58 32 53 81 14 351 325 315 316 348 35 355 342 13 77 81 67 59 53 47 43 37 34 29 24 21 17 17 16 14 12 10 9 8 7 5 3 0 359 359 358 356 355 356 356 357 353 335 305 284 274 268 268 265 260 257 254 249 243 237 234 233 232 230 229 228 226 226 225 224 224 222 219 213 207 204 200 199 202 203 202 199 194 189 183 181 181 178 179 183
326 334 300 8 358 307 337 52 69 47 10 355 356 331 319 305 317 349 342 359 76 87 82 69 61 55 48 43 37 33 26 21 19 16 15 14 12 10 8 6 5 5 3 2 359 357 356 356 354 353 351 351 353 354 348 330 303 285 273 270 270 264 259 255 253 248 242 236 232 232 230 227 225 225 225 224 223 223 222 218 211 206 204 202 202 205 205 203 201 197 191 184 180 181 181 180 182
52 22 328 329 328 311 326 78 92 32 356 356 22 336 311 293 310 329 337 65 95 92 82 70 62 55 49 44 38 33 25 20 18 16 14 12 10 8 6 4 3 2 1 360 357 355 354 352 352 350 348 347 347 347 347 341 324 303 284 274 271 268 263 257 254 249 244 240 235 233 230 226 224 223 224 223 223 223 222 218 211 206 204 205 207 208 208 206 203 198 193 187 182 181 184 183 181
347 357 324 306 307 305 313 316 73 19 351 319 302 230 296 296 312 325 349 93 100 93 82 70 61 53 48 44 37 32 26 21 17 14 13 11 8 6 5 3 1 0 360 359 357 354 352 349 348 348 346 343 342 341 340 338 334 321 300 285 278 274 268 261 256 252 247 243 239 235 232 228 224 222 222 222 222 223 223 220 214 208 206 209 211 212 211 207 203 198 192 189 187 184 184 183 181
312 319 318 303 298 288 297 305 1 6 342 316 314 359 320 302 311 338 46 97 98 90 82 69 58 51 45 40 35 31 25 21 16 12 12 9 6 5 4 3 1 360 359 358 356 354 350 347 345 345 344 341 339 337 334 332 332 329 317 301 292 286 275 264 256 253 249 246 245 242 237 231 224 222 221 220 221 222 221 221 219 212 209 211 213 213 209 206 203 198 193 190 189 187 183 180 180
298 305 299 294 303 287 289 302 345 0 336 324 334 338 330 309 320 10 82 97 92 87 77 62 54 47 41 38 32 26 21 17 13 10 10 8 4 2 3 2 1 360 359 358 357 354 350 347 343 341 342 340 337 333 330 329 328 326 324 313 301 296 284 268 256 252 249 247 248 247 244 236 227 222 220 220 222 221 220 220 221 218 213 211 213 212 207 204 203 197 194 192 188 185 183 181 180
285 296 285 290 302 293 298 304 345 9 339 325 333 332 337 318 331 52 101 94 84 78 65 56 48 42 40 36 28 21 16 10 7 5 6 6 3 1 360 359 359 358 358 358 358 356 352 347 342 339 339 338 336 332 328 329 328 325 321 316 306 299 293 277 260 252 249 248 248 248 247 240 231 223 219 219 222 221 221 220 222 220 216 213 213 212 206 202 201 196 194 197 191 183 182 183 183
273 294 298 298 303 305 305 293 343 11 343 320 326 332 346 323 335 82 104 89 83 72 61 55 42 41 37 28 21 13 8 3 360 359 360 1 1 360 357 355 355 354 354 355 356 356 353 348 342 338 336 337 336 332 328 325 326 324 319 312 305 298 294 287 269 254 249 248 247 248 249 244 235 225 219 220 223 223 221 220 220 219 217 215 212 211 206 200 199 195 192 196 193 185 185 185 184
285 305 302 302 322 321 306 233 13 356 328 316 326 329 328 325 23 93 98 93 96 81 70 59 42 38 28 21 16 6 1 357 355 355 355 357 358 358 355 353 352 350 349 349 350 352 352 349 345 339 336 337 337 334 329 325 321 320 319 311 304 299 293 290 285 267 253 249 248 246 247 248 243 236 226 220 223 225 222 219 219 218 217 214 209 207 204 200 198 196 194 196 193 188 186 187 187
287 323 306 308 343 340 317 302 334 322 285 303 321 315 304 331 91 95 99 107 112 100 75 53 41 36 22 15 6 357 355 352 351 351 350 351 353 354 353 351 348 345 343 342 344 347 349 348 346 342 337 336 337 335 331 327 321 315 314 307 296 297 297 292 290 283 265 253 250 247 246 247 247 246 240 230 225 225 224 223 220 218 217 213 210 206 202 201 199 197 197 199 196 188 184 186 188
310 25 330 321 337 328 304 309 321 316 282 330 334 319 286 127 109 113 118 116 110 82 46 33 32 29 17 10 1 354 349 346 345 345 346 347 348 351 351 349 345 340 338 338 340 341 342 344 345 344 341 336 336 336 332 328 325 320 316 311 298 292 295 296 292 291 283 262 249 245 246 247 246 245 246 240 230 223 223 225 224 221 217 213 211 207 203 201 200 199 200 200 198 191 185 184 187
310 85 28 325 317 313 310 317 328 322 306 51 14 332 283 100 96 142 133 107 85 51 31 24 21 18 10 4 359 353 347 345 345 345 346 344 345 348 348 346 344 340 338 338 339 337 334 336 340 343 342 338 335 336 333 328 328 327 325 323 320 308 298 297 294 292 291 279 259 247 243 245 245 244 245 243 234 226 226 228 225 221 218 214 210 208 205 203 202 201 201 202 201 194 187 185 187
301 75 4 316 305 311 315 320 330 311 301 13 31 309 274 313 75 138 128 100 82 41 28 23 15 12 7 360 356 353 351 350 350 349 347 343 342 343 343 342 341 339 338 338 337 336 334 332 333 336 339 339 337 335 332 328 328 329 328 326 325 321 306 294 291 288 289 289 277 257 247 245 246 244 242 239 235 232 230 229 225 221 217 214 211 208 205 204 205 202 201 205 202 193 187 187 188
291 78 319 307 310 312 313 314 303 286 303 316 181 226 269 299 154 143 133 107 68 29 18 14 10 8 3 1 359 356 354 352 349 346 343 341 338 336 336 336 336 336 336 335 333 332 333 331 330 329 331 334 335 334 329 325 327 330 331 329 325 320 311 295 288 286 285 289 285 268 255 250 249 246 239 236 236 233 230 227 223 219 217 214 212 209 207 208 208 202 200 204 202 193 189 190 190
33 40 276 280 296 298 299 299 288 293 320 304 226 208 264 280 205 140 123 90 23 13 9 5 6 3 360 359 357 354 353 349 345 341 337 336 335 333 332 331 331 331 331 332 331 329 328 328 328 326 325 326 329 331 328 322 320 324 329 332 329 322 314 299 287 284 284 288 289 278 262 252 250 248 241 237 235 231 230 226 220 217 216 215 213 211 211 212 209 203 201 204 203 198 195 195 194
343 305 257 259 273 281 279 278 292 310 298 282 276 208 263 280 274 275 108 88 18 359 359 3 2 359 358 356 353 351 348 344 340 336 333 332 331 329 328 327 327 326 326 327 328 327 325 323 323 323 321 320 321 325 326 322 316 316 320 325 328 326 319 307 291 283 283 287 292 286 268 251 246 245 239 235 233 230 229 226 221 219 217 214 214 212 212 212 210 207 206 205 204 199 197 200 199
291 284 298 300 292 284 273 274 303 307 266 258 206 121 325 299 274 263 99 85 30 358 353 357 358 358 357 352 348 345 342 338 334 330 329 328 326 325 324 323 322 322 321 322 323 322 322 321 319 319 318 316 316 317 319 319 315 312 313 316 321 325 324 316 303 289 283 284 289 292 279 255 244 243 240 235 234 231 227 225 222 218 215 214 215 214 212 212 212 211 207 203 200 196 196 201 201
280 359 358 332 306 272 259 264 224 251 264 177 161 112 331 277 262 108 112 81 30 6 358 356 358 357 352 346 341 339 336 332 330 328 327 326 324 324 323 321 319 318 318 317 318 317 316 316 315 314 313 313 313 312 313 314 313 310 309 311 314 318 323 321 313 300 291 289 288 289 290 270 247 240 240 236 233 229 223 222 221 215 213 216 215 213 212 211 212 209 204 200 197 196 197 199 199
21 39 13 332 314 314 282 277 250 257 254 158 150 12 312 266 274 156 132 76 23 8 6 3 359 352 344 339 334 332 331 329 327 326 325 324 323 322 321 320 318 316 315 314 315 315 313 311 310 309 308 309 310 309 308 309 310 308 305 307 310 313 317 321 318 308 296 292 290 284 289 287 259 241 237 235 231 227 223 221 218 212 212 217 216 212 210 210 209 205 203 200 196 197 201 202 202
43 46 26 331 330 327 300 297 299 283 264 169 151 344 276 268 270 166 139 57 14 8 9 4 354 342 335 332 327 327 328 325 324 323 324 323 321 320 319 319 318 316 315 314 314 314 311 308 306 304 303 304 306 306 305 303 305 306 304 302 305 309 312 316 318 315 302 291 289 284 279 286 279 251 237 233 231 228 225 223 219 214 217 220 215 211 210 210 209 206 206 206 202 201 204 205 206
72 92 175 258 291 284 283 307 312 303 305 283 238 208 243 289 151 150 148 27 6 5 2 352 340 334 330 327 324 325 325 323 322 321 322 322 321 320 320 318 317 316 316 314 312 312 310 307 304 302 301 300 301 302 302 299 299 302 301 298 299 303 308 312 315 317 311 296 287 284 276 273 281 270 246 233 231 230 224 222 220 216 220 221 214 211 212 211 210 209 210 211 209 206 204 204 207
107 125 228 249 205 241 268 304 293 292 302 292 239 207 253 272 139 146 151 352 1 358 347 336 333 330 329 326 324 326 324 323 324 323 322 323 323 323 322 320 315 314 314 313 311 310 308 306 302 300 298 298 299 300 300 297 295 297 299 296 294 297 302 308 311 314 315 305 291 284 279 270 270 279 263 236 228 230 226 222 222 218 218 218 213 211 212 210 211 211 211 211 209 208 206 204 206
143 186 239 134 102 240 270 285 140 244 276 279 266 273 286 262 156 143 39 352 351 346 337 333 331 330 330 327 328 328 326 325 325 325 325 325 324 321 319 318 315 313 313 312 311 310 308 306 302 300 299 298 298 299 298 296 293 293 296 295 292 292 297 303 307 311 314 311 299 287 282 275 265 271 275 246 227 227 227 225 225 221 217 215 212 210 210 209 210 211 211 211 208 207 207 207 208
188 236 341 98 140 159 212 279 311 283 273 274 280 284 291 294 248 134 10 347 342 337 335 333 332 333 330 327 329 329 327 325 325 325 325 326 325 321 317 316 314 313 313 313 312 310 309 308 305 301 299 298 299 300 297 293 292 291 293 295 291 289 293 298 302 307 311 312 306 294 285 278 267 263 273 259 232 224 224 224 225 222 216 212 210 208 208 210 211 210 210 210 209 206 205 208 209
1 299 32 103 231 190 147 187 299 292 284 280 289 295 290 281 282 20 347 341 339 334 334 332 332 333 329 327 329 328 325 324 324 324 325 324 322 320 318 314 313 314 314 314 314 313 312 312 311 308 304 301 300 302 299 293 291 291 292 295 292 287 288 294 298 302 308 310 308 301 290 279 270 261 267 267 239 223 220 220 220 219 214 210 208 207 206 208 210 210 210 208 207 204 203 205 207
54 122 148 232 287 225 179 124 276 272 277 280 299 309 296 245 111 354 336 340 338 331 332 331 329 328 326 326 326 325 324 322 322 323 324 323 317 315 316 314 313 315 314 312 312 309 305 303 302 301 303 304 302 300 298 295 293 292 292 294 292 286 285 290 294 296 303 307 307 305 295 282 273 262 261 270 249 226 218 216 215 214 211 208 208 207 206 207 208 209 210 207 204 203 204 205 206
170 190 188 198 163 152 218 232 176 235 268 272 289 293 280 146 70 338 328 337 334 328 328 325 324 324 323 324 325 323 322 321 320 320 321 322 319 314 315 317 316 315 311 308 309 309 307 306 303 294 292 299 302 299 296 292 292 293 292 293 292 286 283 286 290 292 298 304 306 306 300 287 276 265 259 269 255 228 217 215 214 213 211 208 208 208 205 205 207 208 209 208 206 206 207 208 208
217 217 195 186 166 152 260 255 175 165 243 242 266 280 279 267 322 310 315 329 328 325 323 320 322 323 323 324 324 322 321 321 321 319 317 319 320 317 316 317 317 315 311 310 314 316 315 316 317 305 294 294 298 300 298 293 291 292 291 293 293 285 281 284 286 289 295 301 304 304 302 292 278 267 260 264 260 234 218 214 214 212 211 210 209 208 205 203 205 206 206 207 208 209 209 209 209